TIANTONG-1 3 (47321 NORAD) Tracking and Keplerian Element Data
This shows tracking and keplerian element data for the satellite.
Feedback or suggestion? Click here.
Element | Value |
Catalog | 47321 |
Name | TIANTONG-1 3 |
Epoch Orbit | 103 |
Epoch Day | 105.86127067 |
Epoch Year | 2021 |
RAAN | 309.6064 |
Inclination | 5.3518 |
Eccentricity | 0.0002584 |
Argument of Perigee | 137.98 |
Mean Anonmoly | 148.2103 |
Mean Motion | 1.00273485 |
Decay Rate | -1.57E-06 |
L1 | 1 47321U 21003A 21105.86127067 -.00000157 00000-0 00000+0 0 9992 |
L2 | 2 47321 5.3518 309.6064 0002584 137.9800 148.2103 1.00273485 1039 |
Live tracking and technical data element details for TIANTONG-1 3 (NORAD 47321). TIANTONG-1 3 can be tracked NOW for your location showing map with azimuth and elevation plus other details from your city location.
Track the satellite on the map from your city or location and see movement details for azimuth, elevation, latitude, longitude, range, height, and movement on the map or in text.
IsCatalogInMostPopularTable: catalog: 47321, numindb: 28
Update: records affected: 1
GetName: 47321 TIANTONG-1 3
Hit Count: updated at: Fri, 16 Apr 2021 11:37:01 GMT